Simultaneous Nadir Overpasses (SNOs) Predictions

Prediction of SNOs between METOP-A and NOAA-19 Satellite Orbit:

Table of predicted SNOs for the next 14.0 days since TLE Epoch: 8/18/2017
Index Date (METOP-A) Time (METOP-A) Lat,Lon (METOP-A) SZA (METOP-A ) Date (NOAA-19) Time (NOAA-19) Lat,Lon (NOAA-19) SZA (NOAA-19 ) Distance(km) Time Diff (sec)
1 08/23/2017 04:03:14 77.56, 124.65 66.15 08/23/2017 04:02:10 77.53, 124.68 66.12 2.98 64
2 08/23/2017 04:53:56 -77.55, -68.05 113.85 08/23/2017 04:53:10 -77.53, -68.08 113.87 2.31 46
3 08/23/2017 05:44:36 77.54, 99.22 66.15 08/23/2017 05:44:11 77.51, 99.27 66.13 3.23 25
4 08/23/2017 06:35:18 -77.53, -93.48 113.85 08/23/2017 06:35:11 -77.51, -93.48 113.87 2.31 7
5 08/23/2017 07:25:58 77.52, 73.79 66.16 08/23/2017 07:26:13 77.53, 73.67 66.17 3.24 15
6 08/23/2017 08:16:40 -77.52,-118.91 113.84 08/23/2017 08:17:12 -77.49,-118.88 113.86 2.53 32
7 08/23/2017 09:07:20 77.50, 48.36 66.16 08/23/2017 09:08:14 77.51, 48.27 66.17 2.65 54
8 08/23/2017 09:58:02 -77.50,-144.34 113.84 08/23/2017 09:59:13 -77.47,-144.28 113.86 2.92 71




NCC Satellite Simultaneous Nadir Overpasses (SNOs) Prediction Service
